Terminal Aerodrome Forecast
Issued by NWS Newport/Morehead City, NC

Home | Current Version | Previous Version | Graphics & Text | Print | Product List | Glossary On
Versions: 1 2 3 4 5 6 7 8 9 10 11 12 13 14 15 16 17 18
000
FTUS42 KMHX 201100
TAFEWN
TAF
KEWN 201137Z 2012/2112 06007KT P6SM BKN200
     FM201500 05010G18KT P6SM SCT040 BKN150
     FM202200 04006KT P6SM VCSH SCT025 BKN040=

USA.gov is the U.S. government's official web portal to all federal, state and local government web resources and services.